Regional Weather Roundup
Issued by NWS

Home | Current Version | Previous Version | Text Only | Print | Product List | Glossary Off
Versions: 1 2 3 4 5 6 7 8 9 10 11 12 13 14 15 16 17 18 19 20 21 22 23 24 25 26 27 28 29 30 31 32 33 34 35 36 37 38 39 40 41 42 43 44 45 46 47 48 49 50

000
ASUS43 KMKX 271521
RWRWI

WISCONSIN REGIONAL WEATHER ROUNDUP
NATIONAL WEATHER SERVICE MILWAUKEE/SULLIVAN WI
900 AM CST THU NOV 27 2014

NOTE: "FAIR" INDICATES FEW OR NO CLOUDS BELOW 12,000 FEET WITH NO
SIGNIFICANT WEATHER AND/OR OBSTRUCTIONS TO VISIBILITY.

WIZ001-002-006>008-014>016-023>028-271600-
NORTHWEST WISCONSIN

CITY           SKY/WX    TMP DP  RH WIND       PRES   REMARKS
SUPERIOR ARPT  MOSUNNY   -2  -8  75 W7        30.51S WCI -16
ASHLAND        MOSUNNY    2  -1  88 SW6       30.46R WCI  -9
HAYWARD        MOSUNNY   -4  -9  79 VRB5      30.43R WCI -15
SIREN          SUNNY     -3  -8  77 NW5       30.48R WCI -13
CUMBERLAND     SUNNY     -2  -8  78 NW6       30.43R WCI -14
RICE LAKE      SUNNY     -1  -7  77 NW3       30.46R
CHETEK         SUNNY     -1  -6  77 NW6       30.45R WCI -12
LADYSMITH      SUNNY     -1  -6  81 NW9       30.42R WCI -17
EAU CLAIRE     SUNNY      1  -7  68 NW6       30.46R WCI -10
MENOMONIE      PTSUNNY    1  -6  72 W6        30.47S WCI -10
NEW RICHMOND     N/A      0  -6  78 NW6       30.48R HAZE    WCI -12
OSCEOLA        SUNNY     -1  -6  77 N6        30.53R WCI -12
$$

WIZ003>005-009-010-017-018-271600-
NORTH CENTRAL WISCONSIN

CITY           SKY/WX    TMP DP  RH WIND       PRES   REMARKS
MANITOWISH WTR LGT SNOW  -1  -4  85 NW5       30.31R WCI -11
ARBOR VITAE    SUNNY      4   0  83 N5        30.31R WCI  -5
WOODRUFF       SUNNY      4   0  83 N5        30.31R WCI  -5
RHINELANDER    SUNNY      4   0  83 NW5       30.30R WCI  -5
EAGLE RIVER    SUNNY      5   0  81 NW7       30.29S WCI  -7
LAND O LAKES   SUNNY      7   2  80 NW7       30.29R WCI  -5
PHILLIPS       SUNNY     -1  -5  82 W5        30.34S WCI -11
TOMAHAWK       SUNNY      4  -1  81 NW5       30.33S WCI  -6
MEDFORD        SUNNY      3  -2  79 N10       30.34R WCI -12
MERRILL        SUNNY      7   1  74 NW7       30.34R WCI  -4
$$

WIZ029-030-035-036-043>047-271600-
CENTRAL WISCONSIN

CITY           SKY/WX    TMP DP  RH WIND       PRES   REMARKS
WAUSAU         SUNNY      9   2  73 NW9       30.34R WCI  -4
MOSINEE        MOSUNNY    9   7  92 NW14      30.35R WCI  -8
MARSHFIELD     MOSUNNY    8   1  73 NW8       30.36R WCI  -4
STEVENS POINT  SUNNY     10   4  78 NW10      30.35R WCI  -4
WAUPACA        PTSUNNY   18  10  68 NW9       30.35R WCI   7
WAUTOMA        CLOUDY    15   9  77 NW10      30.37R WCI   2
WISC RAPIDS    CLOUDY    11   3  70 NW13      30.39R WCI  -4
CAMP DOUGLAS   CLOUDY    10   5  79 W12       30.41R WCI  -4
$$

WIZ011>013-019>022-031-037>040-048>050-271600-
NORTHEAST WISCONSIN

CITY           SKY/WX    TMP DP  RH WIND       PRES   REMARKS
ANTIGO         FLURRIES   6   2  84 NW6       30.30R WCI  -4
SHAWANO        PTSUNNY   15   7  69 N7        30.35R WCI   5
OCONTO         CLOUDY    13   6  73 N10       30.35R WCI   0
STURGEON BAY   CLOUDY    16   3  57 N21       30.32R WCI  -2
GREEN BAY      CLOUDY    16   8  71 N10       30.34R WCI   4
MANITOWOC      CLOUDY    18  11  74 N17G25    30.32R WCI   3
APPLETON       PTSUNNY   16  10  79 N10       30.34R WCI   3
CLINTONVILLE   MOSUNNY   16   7  67 N9        30.34R WCI   4
OSHKOSH        LGT SNOW  19  13  77 MISG      30.33R VSB 3/4
$$

WIZ032>034-041-042-053>061-271600-
SOUTHWEST WISCONSIN

CITY           SKY/WX    TMP DP  RH WIND       PRES   REMARKS
LA CROSSE      SUNNY      9  -1  64 N15       30.47R WCI  -8
SPARTA         MOSUNNY    8   1  73 NW10      30.45R WCI  -6
VIROQUA        SUNNY      9   3  77 NW10      30.38R WCI  -6
BOSCOBEL       CLOUDY    18   9  68 NW13      30.43R WCI   5
PRAIRIE DU CHI PTSUNNY   13   5  70 W10       30.44R WCI   0
PLATTEVILLE    CLOUDY    20  15  83 NW9       30.38R WCI   9
$$

WIZ056-057-062-063-064-067-068-271600-
SOUTH CENTRAL WISCONSIN

CITY           SKY/WX    TMP DP  RH WIND       PRES   REMARKS
REEDSBURG      LGT SNOW  15  11  83 NW12      30.38R WCI   2
BARABOO/DELLS  LGT SNOW  16  11  81 NW9       30.37R WCI   4
LONE ROCK      MIX PCPN  21  10  62 NW16      30.40R WCI   7
MINERAL POINT  PTSUNNY   21  14  73 NW13      30.35R WCI   9
MADISON        LGT SNOW  19  13  77 NW7       30.36R WCI  10
MIDDLETON      CLOUDY    20  13  73 N14       30.36R WCI   7
WATERTOWN      CLOUDY    19  14  83 NW10      30.33R WCI   7
MONROE         CLOUDY    21  18  86 NW10G16   30.32R WCI  10
JANESVILLE     NOT AVBL
$$

WIZ051-052-058>065-066-070>072-271600-
SOUTHEAST WISCONSIN

CITY           SKY/WX    TMP DP  RH WIND       PRES   REMARKS
MILWAUKEE      PTSUNNY   24  16  71 NW12      30.30R WCI  13
WAUKESHA       CLOUDY    18  16  93 NW12      30.32R WCI   5
MILWAUKEE/TIMM MOSUNNY   23  16  74 NW18      30.31R WCI   9
RACINE         MOSUNNY   23  17  78 NW16      30.31R WCI  10
BURLINGTON     CLOUDY    19  16  86 NW12G18   30.32R WCI   7
KENOSHA        CLOUDY    22  17  81 NW10      30.31R WCI  11
FOND DU LAC    CLOUDY    19  13  77 NW14      30.32R WCI   6
SHEBOYGAN      CLOUDY    20  13  74 N13       30.31R WCI   7
WEST BEND      FLURRIES  21  18  86 NW10      30.30R WCI  10
JUNEAU         CLOUDY    17  12  81 NW10      30.33R WCI   4
$$

LSZ147-162-271600-
LAKE SUPERIOR

STATION/POSITION TIME  TEMP    WIND        PRES    WAVE
                       AIR SEA DIR/SP/G            HT/PER
                 (UTC) (F)     (DEG/KT/KT) (MB)    (FT/S)
DEVILS ISLAND    1500    8     360/ 19/ 21 1032.5R
PORT WING        1440    8     350/ 12/ 24 1031.5S
SAXON HARBOR     1400   13     330/ 15/ 19 1029.5S
$$

LMZ867-665-643>646-271600-
LAKE MICHIGAN

STATION/POSITION TIME  TEMP    WIND        PRES    WAVE
                       AIR SEA DIR/SP/G            HT/PER
                 (UTC) (F)     (DEG/KT/KT) (MB)    (FT/S)
CHAMBERS ISLAND  1400   16     310/ 15/ 23 1026.4R
N MID LAKE BUOY  1450   20 42  330/ 19/ 25 1025.8R   5/ 5
NORTHPORT PIER   1507   19     320/ 23     1026.1R
SISTER BAY       1443           10/ 29/ 35   N/A
KEWAUNEE LAKESHO 1500   17     340/ 12/ 19 1025.7R
SHEBOYGAN LAKESH 1500   20 35  340/ 17/ 20 1027.9R
PORT WASHINGTON  1440   25     310/  6/ 11 1026.8R
MILWAUKEE LAKESH 1500   24     310/ 11/ 15   N/A
S MID LAKE BUOY  1450   31 42  310/ 21/ 25 1024.7R   5/ 5
KENOSHA   LAKESH 1500   23     300/ 17/ 21 1026.1R
$$

TC  - TEMPERATURE IN CELSIUS
VSB - VISIBILITY IN STATUTE MILES
WCI - WIND CHILL INDEX
HX  - HEAT INDEX




USA.gov is the U.S. government's official web portal to all federal, state and local government web resources and services.